Location: Waco, TX
(31.5480°N, 97.1670°W)
Time: 09:55:29
(UTC-06:00)

ISS - All Passes

Search period start: 24 January 2021 00:00
Search period end: 03 February 2021 00:00
Orbit: 418 x 421 km, 51.6° (Epoch: 24 January)

Date Brightness Start Highest point End Pass type
(mag) Time Alt. Az. Time Alt. Az. Time Alt. Az.
24 Jan - 01:12:41 10° WNW 01:15:38 28° SW 01:18:33 10° S night (unlit)
24 Jan - 16:15:12 10° SW 16:18:33 74° NW 16:21:55 10° NE daylight
24 Jan - 22:49:30 10° N 22:51:18 14° NNE 22:53:05 10° ENE night (unlit)
25 Jan - 00:25:03 10° NW 00:28:21 56° SW 00:31:39 10° SSE night (unlit)
25 Jan - 15:27:56 10° SSW 15:31:13 53° SE 15:34:31 10° NE daylight
25 Jan - 17:06:25 10° WNW 17:08:16 14° NNW 17:10:08 10° N daylight
25 Jan - 23:37:39 10° NW 23:41:01 71° NE 23:44:22 10° SE night (unlit)
26 Jan - 14:41:03 10° S 14:43:56 27° SE 14:46:50 10° ENE daylight
26 Jan - 16:18:02 10° W 16:20:43 22° NW 16:23:25 10° NNE daylight
26 Jan - 22:50:27 10° NNW 22:53:36 36° NE 22:56:44 10° ESE night (unlit)
27 Jan - 00:28:13 10° W 00:30:09 15° SW 00:32:05 10° SSW night (unlit)
27 Jan - 13:54:49 10° SSE 13:56:42 14° SE 13:58:34 10° E daylight
27 Jan - 15:30:05 10° WSW 15:33:14 37° NW 15:36:24 10° NNE daylight
27 Jan - 22:03:26 10° NNW 22:06:07 21° NE 22:08:47 10° E night (unlit)
27 Jan - 23:39:58 10° WNW 23:42:54 27° SW 23:45:48 10° S night (unlit)
28 Jan - 14:42:27 10° SW 14:45:48 73° NW 14:49:10 10° NE daylight
28 Jan - 21:16:43 10° N 21:18:33 14° NNE 21:20:22 10° ENE night (unlit)
28 Jan - 22:52:17 10° NW 22:55:35 55° SW 22:58:52 10° SSE night (unlit)
29 Jan - 13:55:09 10° SSW 13:58:25 54° SE 14:01:44 10° NE daylight
29 Jan - 15:33:39 10° WNW 15:35:28 14° NNW 15:37:18 10° N daylight
29 Jan - 22:04:50 10° NW 22:08:12 72° NE 22:11:34 10° SE night (unlit)
30 Jan - 13:08:13 10° S 13:11:06 27° SE 13:14:00 10° ENE daylight
30 Jan - 14:45:13 10° W 14:47:53 21° NW 14:50:34 10° NNE daylight
30 Jan - 21:17:35 10° NNW 21:20:45 37° NE 21:23:54 10° ESE night (unlit)
30 Jan - 22:55:23 10° W 22:57:17 14° SW 22:59:12 10° SSW night (unlit)
31 Jan - 12:21:55 10° SSE 12:23:49 14° SE 12:25:43 10° E daylight
31 Jan - 13:57:13 10° WSW 14:00:21 36° NW 14:03:31 10° NNE daylight
31 Jan - 20:30:32 10° NNW 20:33:14 22° NE 20:35:55 10° E visible
31 Jan - 22:07:06 10° WNW 22:10:00 27° SW 22:12:54 10° S night (unlit)
01 Feb - 13:09:33 10° SW 13:12:53 72° NW 13:16:14 10° NE daylight
01 Feb - 19:43:46 10° N 19:45:37 14° NNE 19:47:27 10° ENE visible
01 Feb - 21:19:21 10° NW 21:22:39 54° SW 21:25:57 10° SSE night (unlit)
02 Feb - 12:22:11 10° SSW 12:25:28 55° SE 12:28:46 10° NE daylight
02 Feb - 14:00:43 10° WNW 14:02:31 14° NNW 14:04:19 10° N daylight
02 Feb - 20:31:51 10° NW 20:35:14 73° NE 20:38:36 10° SE visible
